User: anonymous   Login
Location: Unspecified
(0.0000°N, 0.0000°E)
Time: 22:08:00
(UTC+01:00)
Language:

Cosmos 773 Rocket - Orbit

View from above orbital plane
View from above orbital plane
View from above satellite
View from above satellite

Ground track
Ground track

The orbit data is extracted from the following two-line orbital elements,

1 08344U 75094B   15030.84372125  .00000238  00000-0  85404-4 0  6776
2 08344 074.0578 285.4920 0021152 042.1778 025.0410 14.38897994 60798
Epoch (UTC): 30 January 2015 20:14:57
Eccentricity: 0.0021152
inclination: 74.0578°
perigee height: 747 km
apogee height: 777 km
right ascension of ascending node: 285.4920°
argument of perigee: 42.1778°
revolutions per day: 14.38897994
mean anomaly at epoch: 25.0410°
orbit number at epoch: 6079

The dashed part of the orbit path shows where the satellite is in the earth's shadow,  

DLR